Miscellaneous Local Product
Issued by NWS North Platte, NE

Home | Current Version | Previous Version | Graphics & Text | Print | Product List | Glossary On
Versions: 1 2 3 4 5 6 7 8 9 10 11 12 13 14 15 16 17 18 19 20 21 22 23 24 25 26 27 28 29 30 31 32 33 34 35 36 37 38 39 40 41 42 43 44 45 46 47 48 49 50
857
AXUS43 KLBF 120610
MISLBF


WESTERN AND NORTH CENTRAL NEBRASKA HOURLY WEATHER ROUNDUP
NATIONAL WEATHER SERVICE NORTH PLATTE NE
1200 AM CST FRI FEB 12 2016

NOTE: "FAIR" INDICATES FEW OR NO CLOUDS BELOW 12,000 FEET WITH NO
SIGNIFICANT WEATHER AND/OR OBSTRUCTIONS TO VISIBILITY.

NOTE: STATIONS NOT REPORTING VARIABLES SUCH AS SKY/WEATHER OR
PRESSURE ARE PROVIDED BY THE NEBRASKA DEPARTMENT OF
ROADS...RAWS...AND APRS NETWORKS...AND ARE NOT UNDER
NATIONAL WEATHER SERVICE QUALITY CONTROL.

...OBSERVATIONS IN AND NEAR THE EASTERN PANHANDLE OF NEBRASKA...

CITY           SKY/WX    TMP DP  RH WIND       PRES   REMARKS
PINE RIDGE     CLOUDY    33  29  85 CALM      30.24R
CHADRON        CLOUDY    30  27  88 NE5       30.24R WCI  25
ALLIANCE       CLOUDY    31  26  82 NW7       30.21S WCI  24
SIDNEY         CLEAR     31  26  82 NW12      30.23F WCI  22
CRESCENT LAKE    N/A     35  25  68 CALM        N/A
BIG SPRINGS      N/A     32  28  86 W3          N/A
$$

...OBSERVATIONS IN NORTH CENTRAL NEBRASKA...

CITY           SKY/WX    TMP DP  RH WIND       PRES   REMARKS
VALENTINE      CLOUDY    29  27  92 CALM      30.23S
THEDFORD       CLOUDY    33  32  96 N9        30.24R WCI  25
AINSWORTH      CLOUDY    29  28  93 NW7       30.22S WCI  22
O`NEILL        CLOUDY    27  26  94 N9        30.23S WCI  18
ORD            MOCLDY    29  26  89 N10       30.22R WCI  20
BROKEN BOW     CLOUDY    32  29  88 N13       30.22R WCI  22
VALENTINE NWR    N/A     30  28  94 N7          N/A  WCI  23
BUTTE            N/A     21  20  94 CALM        N/A
HALSEY           N/A     32  29  90 NW6         N/A  WCI  26
CHAMBERS         N/A     27  25  90 N5          N/A  WCI  22
EWING            N/A     26  24  94 N5G12       N/A  WCI  20
$$

...OBSERVATIONS IN SOUTHWEST NEBRASKA AND FAR NORTHEAST COLORADO...

CITY           SKY/WX    TMP DP  RH WIND       PRES   REMARKS
HOLYOKE        FAIR      41  30  65 NW14      30.23S
IMPERIAL       CLOUDY    37  28  70 NW8       30.23R WCI  31
OGALLALA       CLEAR     37  28  71 N10       30.22S WCI  29
NORTH PLATTE   CLEAR     35  29  78 NW7       30.22R WCI  29
MCCOOK         CLOUDY    34  28  79 NW6       30.21R WCI  29
LEXINGTON      CLEAR     32  27  84 NW7       30.22R WCI  25
PAXTON           N/A     33  28  83 CALM        N/A
STAPLETON        N/A     33  30  89 CALM        N/A
GOTHENBURG       N/A     37  30  75 NW5         N/A  WCI  33
CALLAWAY         N/A     33  30  88 NE6         N/A  WCI  27
$$

...OBSERVATIONS IN CENTRAL LINCOLN COUNTY AREA...

CITY           SKY/WX    TMP DP  RH WIND       PRES   REMARKS
N.P. AIRPORT   CLEAR     35  29  78 NW7       30.22R WCI  29
N.P. DOWNTOWN    N/A     36  32  84 N3          N/A
N.P. SOUTHEAST   N/A     37  30  77 N5G12       N/A  WCI  33
N.P. HILLCREST   N/A     35  32  88 N10         N/A  WCI  27
$$

...SOME OBSERVATIONS FROM AROUND THE REGION...

CITY           SKY/WX    TMP DP  RH WIND       PRES   REMARKS
DENVER         PTCLDY    35  26  69 SE16      30.26S WCI  25
LARAMIE        CLOUDY    34  22  61 SW3       30.27F
CHEYENNE       CLOUDY    36  24  62 CALM      30.26S
SCOTTSBLUFF    CLEAR     33  27  78 N3        30.24R
RAPID CITY     CLOUDY    31  28  89 CALM      30.24S
BISMARCK       CLOUDY    20  12  71 N6        30.31R WCI  12
PIERRE         CLOUDY    28  25  88 NW9       30.27R WCI  19
WINNER         FAIR      25  21  85 W6        30.25R WCI  18
SIOUX FALLS    LGT SNOW  13  10  88 CALM      30.24S FOG
OMAHA          CLOUDY    24  20  84 N6        30.23R WCI  17
GRAND ISLAND   CLOUDY    31  26  82 N20       30.21R WCI  19
KANSAS CITY    CLOUDY    30  21  69 E7        30.18R WCI  23
WICHITA        PTCLDY    28  23  81 S6        30.18S WCI  22
OKLAHOMA CITY  PTCLDY    41  32  70 S3        30.17F
LIBERAL        CLOUDY    43  25  49 NE10      30.21S
HAYS           CLEAR     30  19  64 W8        30.17R WCI  23
GOODLAND       CLOUDY    32  27  81 NW8       30.24R WCI  25
$$




USA.gov is the U.S. government's official web portal to all federal, state and local government web resources and services.